Terminal Aerodrome Forecast
Issued by NWS

Home | Current Version | Previous Version | Text Only | Print | Product List | Glossary On
Versions: 1 2 3 4 5 6 7 8 9 10 11 12 13 14 15 16 17 18 19 20
000
FTUS41 KGYX 300841 AAA
TAFPSM
TAF AMD
KPSM 300841Z 3009/3106 20005KT P6SM BKN120
     FM301500 20010G20KT P6SM BKN025 OVC040
     FM302200 25007KT P6SM BKN050=

USA.gov is the U.S. government's official web portal to all federal, state and local government web resources and services.